KAC320 OLBA-LTFE

Flight info

Callsign KAC320
Flight time 1h 21m
Altitude 38000
Route KUKLA M31 LCA M601 EVENO UM601 EXELA UN127 DAL UN618 ERFES
Aircraft A320/M-SDE3FGHIRWY/LB1

Departure

Time 2026-05-06 16:43
Airport Beirut Rafic Hariri International Airport (OLBA)

Arrival

Time 2026-05-06 18:05
Airport Milas Bodrum International Airport (LTFE)
Time Latitude Longitude Altitude Speed Heading
2026-05-06 16:13 33.82309 35.49175 15 ft 0 kts 351°
2026-05-06 16:33 33.82301 35.49177 15 ft 4 kts 352°
2026-05-06 16:33 33.82274 35.49181 15 ft 4 kts 354°
2026-05-06 16:33 33.82250 35.49184 15 ft 2 kts 353°
2026-05-06 16:34 33.82209 35.49213 17 ft 4 kts 290°
2026-05-06 16:34 33.82205 35.49227 15 ft 1 kts 285°
2026-05-06 16:34 33.82205 35.49228 15 ft 0 kts 285°
2026-05-06 16:37 33.82219 35.49165 15 ft 16 kts 285°
2026-05-06 16:38 33.82247 35.49039 14 ft 11 kts 284°
2026-05-06 16:38 33.82277 35.49014 14 ft 5 kts 347°
2026-05-06 16:38 33.82307 35.49008 14 ft 4 kts 350°
2026-05-06 16:38 33.82340 35.49003 14 ft 8 kts 353°
2026-05-06 16:39 33.82422 35.48994 13 ft 16 kts 354°
2026-05-06 16:39 33.82558 35.48978 15 ft 22 kts 355°
2026-05-06 16:39 33.82715 35.48988 13 ft 23 kts 12°
2026-05-06 16:39 33.82879 35.48987 14 ft 25 kts 356°
2026-05-06 16:40 33.83055 35.48983 14 ft 26 kts 357°
2026-05-06 16:40 33.83238 35.48972 14 ft 27 kts 357°
2026-05-06 16:40 33.83431 35.48959 14 ft 28 kts 356°
2026-05-06 16:40 33.83632 35.48948 14 ft 29 kts 357°
2026-05-06 16:41 33.83802 35.48923 13 ft 19 kts 324°
2026-05-06 16:41 33.83827 35.48773 2 ft 20 kts 261°
2026-05-06 16:41 33.83752 35.48703 0 ft 9 kts 177°
2026-05-06 16:41 33.83733 35.48703 -1 ft 0 kts 177°
2026-05-06 16:42 33.83732 35.48703 -1 ft 0 kts 177°
2026-05-06 16:42 33.83594 35.48712 0 ft 56 kts 176°
2026-05-06 16:42 33.82969 35.48752 4 ft 121 kts 177°
2026-05-06 16:43 33.81952 35.48822 27 ft 169 kts 177°
2026-05-06 16:43 33.80804 35.48843 682 ft 166 kts 190°
2026-05-06 16:43 33.79864 35.48077 1371 ft 169 kts 243°
2026-05-06 16:43 33.79462 35.46703 1837 ft 187 kts 248°
2026-05-06 16:44 33.78647 35.45386 2205 ft 210 kts 225°
2026-05-06 16:44 33.77554 35.44110 2641 ft 229 kts 224°
2026-05-06 16:44 33.76355 35.42751 3288 ft 242 kts 223°
2026-05-06 16:44 33.75075 35.41303 3865 ft 261 kts 223°
2026-05-06 16:45 33.73733 35.39781 4647 ft 270 kts 223°
2026-05-06 16:45 33.72362 35.38217 4940 ft 272 kts 223°
2026-05-06 16:45 33.70996 35.36651 5015 ft 271 kts 224°
2026-05-06 16:45 33.69632 35.35087 5025 ft 271 kts 224°
2026-05-06 16:46 33.68266 35.33519 5026 ft 271 kts 224°
2026-05-06 16:46 33.66903 35.31955 5025 ft 270 kts 224°
2026-05-06 16:46 33.65562 35.30417 5026 ft 270 kts 224°
2026-05-06 16:46 33.64410 35.28656 5027 ft 269 kts 245°
2026-05-06 16:47 33.63988 35.26453 5383 ft 278 kts 271°
2026-05-06 16:47 33.64388 35.24202 6420 ft 277 kts 294°
2026-05-06 16:47 33.65539 35.22345 7337 ft 282 kts 320°
2026-05-06 16:47 33.67183 35.21035 8236 ft 285 kts 329°
2026-05-06 16:48 33.68941 35.19889 9114 ft 290 kts 333°
2026-05-06 16:48 33.70791 35.18892 9959 ft 293 kts 337°
2026-05-06 16:48 33.72722 35.18062 10801 ft 297 kts 341°
2026-05-06 16:48 33.74730 35.17408 11605 ft 303 kts 345°
2026-05-06 16:49 33.76853 35.16920 11906 ft 326 kts 349°
2026-05-06 16:49 33.79166 35.16606 12368 ft 340 kts 349°
2026-05-06 16:49 33.81461 35.15885 13055 ft 341 kts 334°
2026-05-06 16:49 33.83525 35.14497 13789 ft 339 kts 320°
2026-05-06 16:50 33.85360 35.12716 14536 ft 340 kts 317°
2026-05-06 16:50 33.87203 35.10915 15278 ft 341 kts 317°
2026-05-06 16:50 33.89055 35.09114 15979 ft 344 kts 317°
2026-05-06 16:50 33.90925 35.07296 16674 ft 346 kts 317°
2026-05-06 16:51 33.92807 35.05469 17345 ft 348 kts 317°
2026-05-06 16:51 33.94675 35.03658 17992 ft 350 kts 317°
2026-05-06 16:51 33.96580 35.01809 18629 ft 353 kts 316°
2026-05-06 16:51 33.98496 34.99949 19250 ft 355 kts 316°
2026-05-06 16:52 34.00425 34.98074 19851 ft 357 kts 316°
2026-05-06 16:52 34.02362 34.96188 20436 ft 359 kts 317°
2026-05-06 16:52 34.04313 34.94283 20988 ft 362 kts 317°
2026-05-06 16:52 34.06278 34.92364 21526 ft 365 kts 316°
2026-05-06 16:53 34.08258 34.90432 22055 ft 367 kts 316°
2026-05-06 16:53 34.10250 34.88486 22562 ft 370 kts 316°
2026-05-06 16:53 34.12250 34.86530 23084 ft 371 kts 316°
2026-05-06 16:53 34.14262 34.84559 23584 ft 373 kts 316°
2026-05-06 16:54 34.16286 34.82579 24063 ft 375 kts 316°
2026-05-06 16:54 34.18323 34.80587 24540 ft 377 kts 316°
2026-05-06 16:54 34.20375 34.78583 24982 ft 380 kts 316°
2026-05-06 16:54 34.22435 34.76569 25431 ft 382 kts 316°
2026-05-06 16:55 34.24374 34.74403 25855 ft 379 kts 307°
2026-05-06 16:55 34.25959 34.71880 26263 ft 377 kts 300°
2026-05-06 16:55 34.27409 34.69273 26671 ft 379 kts 300°
2026-05-06 16:55 34.28890 34.66628 27084 ft 380 kts 301°
2026-05-06 16:56 34.30387 34.63969 27487 ft 382 kts 301°
2026-05-06 16:56 34.31892 34.61301 27864 ft 384 kts 300°
2026-05-06 16:56 34.33399 34.58630 28254 ft 385 kts 300°
2026-05-06 16:56 34.34908 34.55945 28633 ft 387 kts 300°
2026-05-06 16:57 34.36422 34.53238 28993 ft 389 kts 300°
2026-05-06 16:57 34.37939 34.50519 29345 ft 390 kts 300°
2026-05-06 16:57 34.39462 34.47785 29676 ft 392 kts 300°
2026-05-06 16:57 34.40993 34.45038 30017 ft 394 kts 300°
2026-05-06 16:58 34.42532 34.42282 30331 ft 395 kts 300°
2026-05-06 16:58 34.44076 34.39518 30634 ft 398 kts 300°
2026-05-06 16:58 34.45630 34.36739 30923 ft 399 kts 300°
2026-05-06 16:58 34.47202 34.33951 31197 ft 401 kts 300°
2026-05-06 16:59 34.48774 34.31187 31466 ft 403 kts 301°
2026-05-06 16:59 34.50373 34.28385 31782 ft 404 kts 301°
2026-05-06 16:59 34.51970 34.25583 32159 ft 403 kts 300°
2026-05-06 16:59 34.53560 34.22788 32532 ft 402 kts 301°
2026-05-06 17:00 34.55143 34.19999 32907 ft 401 kts 300°
2026-05-06 17:00 34.56720 34.17210 33246 ft 400 kts 300°
2026-05-06 17:00 34.58289 34.14420 33603 ft 399 kts 300°
2026-05-06 17:00 34.59852 34.11633 33949 ft 399 kts 300°
2026-05-06 17:01 34.61416 34.08851 34260 ft 399 kts 300°
2026-05-06 17:01 34.62979 34.06073 34586 ft 398 kts 300°
2026-05-06 17:01 34.64545 34.03295 34871 ft 398 kts 300°
2026-05-06 17:01 34.66111 34.00521 35146 ft 398 kts 300°
2026-05-06 17:02 34.67678 33.97745 35403 ft 399 kts 300°
2026-05-06 17:02 34.69248 33.94963 35670 ft 399 kts 300°
2026-05-06 17:02 34.70817 33.92183 35925 ft 399 kts 301°
2026-05-06 17:02 34.72387 33.89400 36159 ft 399 kts 301°
2026-05-06 17:03 34.73937 33.86646 36381 ft 399 kts 300°
2026-05-06 17:03 34.75496 33.83852 36609 ft 399 kts 300°
2026-05-06 17:03 34.77050 33.81052 36849 ft 399 kts 300°
2026-05-06 17:03 34.78599 33.78255 37117 ft 398 kts 300°
2026-05-06 17:04 34.80141 33.75473 37389 ft 395 kts 300°
2026-05-06 17:04 34.81676 33.72704 37645 ft 394 kts 300°
2026-05-06 17:04 34.83208 33.69935 37850 ft 394 kts 300°
2026-05-06 17:04 34.84738 33.67167 38028 ft 394 kts 300°
2026-05-06 17:05 34.86268 33.64391 38081 ft 395 kts 299°
2026-05-06 17:05 34.88506 33.58379 38084 ft 389 kts 287°
2026-05-06 17:06 34.90321 33.52159 38080 ft 389 kts 287°
2026-05-06 17:06 34.92130 33.45983 38080 ft 390 kts 287°
2026-05-06 17:07 34.93952 33.39747 38080 ft 390 kts 287°
2026-05-06 17:07 34.95765 33.33516 38087 ft 390 kts 287°
2026-05-06 17:08 34.97271 33.28334 38089 ft 390 kts 287°
2026-05-06 17:08 34.99076 33.22098 38090 ft 390 kts 287°
2026-05-06 17:09 35.00879 33.15854 38085 ft 391 kts 287°
2026-05-06 17:09 35.02681 33.09602 38085 ft 391 kts 287°
2026-05-06 17:10 35.04482 33.03349 38091 ft 391 kts 287°
2026-05-06 17:10 35.06274 32.97083 38092 ft 391 kts 287°
2026-05-06 17:11 35.08040 32.90851 38087 ft 390 kts 287°
2026-05-06 17:11 35.09736 32.84546 38084 ft 391 kts 286°
2026-05-06 17:12 35.11407 32.78222 38089 ft 391 kts 287°
2026-05-06 17:12 35.13089 32.71902 38095 ft 391 kts 287°
2026-05-06 17:13 35.14775 32.65588 38100 ft 390 kts 287°
2026-05-06 17:13 35.16455 32.59281 38092 ft 390 kts 287°
2026-05-06 17:14 35.18138 32.52963 38092 ft 390 kts 287°
2026-05-06 17:14 35.19813 32.46646 38097 ft 391 kts 287°
2026-05-06 17:15 35.21475 32.40352 38098 ft 391 kts 287°
2026-05-06 17:15 35.23150 32.34004 38095 ft 392 kts 287°
2026-05-06 17:16 35.24817 32.27664 38101 ft 392 kts 287°
2026-05-06 17:16 35.26485 32.21308 38104 ft 392 kts 287°
2026-05-06 17:17 35.28149 32.14956 38099 ft 392 kts 287°
2026-05-06 17:17 35.29810 32.08588 38104 ft 392 kts 287°
2026-05-06 17:18 35.31474 32.02225 38104 ft 392 kts 287°
2026-05-06 17:18 35.33142 31.95908 38102 ft 392 kts 288°
2026-05-06 17:19 35.34816 31.89553 38103 ft 392 kts 287°
2026-05-06 17:19 35.36475 31.83193 38105 ft 392 kts 287°
2026-05-06 17:20 35.38134 31.76829 38103 ft 392 kts 287°
2026-05-06 17:20 35.39790 31.70474 38101 ft 391 kts 287°
2026-05-06 17:21 35.41443 31.64103 38101 ft 391 kts 287°
2026-05-06 17:21 35.43093 31.57750 38097 ft 391 kts 287°
2026-05-06 17:22 35.44745 31.51399 38097 ft 390 kts 287°
2026-05-06 17:22 35.46375 31.45085 38094 ft 391 kts 287°
2026-05-06 17:23 35.47999 31.38728 38095 ft 391 kts 287°
2026-05-06 17:23 35.49631 31.32358 38098 ft 391 kts 287°
2026-05-06 17:24 35.51270 31.25984 38102 ft 391 kts 287°
2026-05-06 17:24 35.52905 31.19601 38105 ft 392 kts 287°
2026-05-06 17:25 35.54535 31.13222 38106 ft 391 kts 287°
2026-05-06 17:25 35.56152 31.06837 38104 ft 391 kts 287°
2026-05-06 17:26 35.57773 31.00454 38106 ft 391 kts 287°
2026-05-06 17:26 35.59385 30.94069 38105 ft 391 kts 287°
2026-05-06 17:27 35.60989 30.87681 38103 ft 390 kts 287°
2026-05-06 17:27 35.62593 30.81354 38101 ft 391 kts 288°
2026-05-06 17:28 35.64247 30.74987 38098 ft 391 kts 288°
2026-05-06 17:28 35.65900 30.68627 38096 ft 391 kts 288°
2026-05-06 17:29 35.67546 30.62253 38098 ft 390 kts 288°
2026-05-06 17:29 35.69175 30.55886 38093 ft 390 kts 288°
2026-05-06 17:30 35.70802 30.49514 38089 ft 390 kts 288°
2026-05-06 17:30 35.72429 30.43141 38092 ft 390 kts 288°
2026-05-06 17:31 35.74053 30.36765 38093 ft 391 kts 288°
2026-05-06 17:31 35.75684 30.30382 38087 ft 391 kts 288°
2026-05-06 17:32 35.77304 30.23984 38088 ft 392 kts 288°
2026-05-06 17:32 35.78920 30.17583 38093 ft 391 kts 288°
2026-05-06 17:33 35.80515 30.11219 38086 ft 391 kts 288°
2026-05-06 17:33 35.82125 30.04815 38088 ft 392 kts 288°
2026-05-06 17:34 35.83747 29.98399 38091 ft 392 kts 288°
2026-05-06 17:34 35.85462 29.92025 38088 ft 392 kts 289°
2026-05-06 17:35 35.87216 29.85669 38087 ft 391 kts 289°
2026-05-06 17:35 35.88957 29.79304 38087 ft 391 kts 289°
2026-05-06 17:36 35.91543 29.69751 38092 ft 391 kts 289°
2026-05-06 17:36 35.93251 29.63376 38085 ft 392 kts 289°
2026-05-06 17:37 35.95132 29.57084 38091 ft 391 kts 298°
2026-05-06 17:37 35.98482 29.51834 38086 ft 393 kts 317°
2026-05-06 17:38 36.02727 29.47548 38079 ft 395 kts 318°
2026-05-06 17:38 36.04854 29.45394 37942 ft 396 kts 318°
2026-05-06 17:38 36.07002 29.43207 36890 ft 406 kts 318°
2026-05-06 17:39 36.09201 29.40965 35956 ft 409 kts 318°
2026-05-06 17:39 36.11354 29.38774 34951 ft 404 kts 318°
2026-05-06 17:39 36.13517 29.36577 33950 ft 399 kts 318°
2026-05-06 17:39 36.15648 29.34412 33021 ft 393 kts 318°
2026-05-06 17:40 36.17717 29.32311 32535 ft 376 kts 319°
2026-05-06 17:40 36.19695 29.30293 32033 ft 362 kts 318°
2026-05-06 17:40 36.21616 29.28296 31542 ft 359 kts 318°
2026-05-06 17:40 36.23508 29.26309 31077 ft 355 kts 318°
2026-05-06 17:41 36.25351 29.24271 30382 ft 357 kts 314°
2026-05-06 17:41 36.27095 29.22029 29420 ft 366 kts 313°
2026-05-06 17:41 36.28832 29.19704 28457 ft 366 kts 312°
2026-05-06 17:41 36.30529 29.17388 27561 ft 360 kts 312°
2026-05-06 17:42 36.32180 29.15126 27048 ft 345 kts 312°
2026-05-06 17:42 36.33760 29.12966 26524 ft 332 kts 312°
2026-05-06 17:42 36.35302 29.10872 25821 ft 326 kts 312°
2026-05-06 17:42 36.36821 29.08814 25262 ft 321 kts 312°
2026-05-06 17:43 36.38341 29.06759 25025 ft 325 kts 313°
2026-05-06 17:43 36.39870 29.04695 24780 ft 325 kts 313°
2026-05-06 17:43 36.41397 29.02633 24519 ft 324 kts 313°
2026-05-06 17:43 36.42915 29.00582 24091 ft 321 kts 313°
2026-05-06 17:44 36.44422 28.98544 23620 ft 319 kts 313°
2026-05-06 17:44 36.45918 28.96521 23155 ft 317 kts 313°
2026-05-06 17:44 36.47409 28.94506 22720 ft 316 kts 313°
2026-05-06 17:44 36.48893 28.92496 22277 ft 314 kts 313°
2026-05-06 17:45 36.50344 28.90526 21848 ft 313 kts 313°
2026-05-06 17:45 36.51808 28.88536 21420 ft 311 kts 313°
2026-05-06 17:45 36.53263 28.86558 20999 ft 309 kts 313°
2026-05-06 17:45 36.54711 28.84589 20583 ft 308 kts 313°
2026-05-06 17:46 36.56155 28.82629 20142 ft 306 kts 313°
2026-05-06 17:46 36.57589 28.80681 19727 ft 305 kts 313°
2026-05-06 17:46 36.59019 28.78742 19326 ft 303 kts 313°
2026-05-06 17:46 36.60441 28.76811 18930 ft 302 kts 313°
2026-05-06 17:47 36.61851 28.74885 18528 ft 300 kts 313°
2026-05-06 17:47 36.63254 28.72968 18149 ft 299 kts 313°
2026-05-06 17:47 36.64647 28.71060 17760 ft 297 kts 313°
2026-05-06 17:47 36.66041 28.69154 17375 ft 296 kts 313°
2026-05-06 17:48 36.67425 28.67263 17000 ft 295 kts 313°
2026-05-06 17:48 36.68809 28.65379 16625 ft 294 kts 313°
2026-05-06 17:48 36.70190 28.63500 16256 ft 293 kts 313°
2026-05-06 17:48 36.71568 28.61618 15891 ft 293 kts 313°
2026-05-06 17:49 36.72935 28.59747 15542 ft 292 kts 313°
2026-05-06 17:49 36.74298 28.57878 15204 ft 291 kts 313°
2026-05-06 17:49 36.75638 28.56039 14850 ft 289 kts 313°
2026-05-06 17:49 36.76990 28.54187 14520 ft 288 kts 313°
2026-05-06 17:50 36.78332 28.52344 14137 ft 285 kts 313°
2026-05-06 17:50 36.79662 28.50516 13494 ft 283 kts 313°
2026-05-06 17:50 36.80988 28.48693 12829 ft 282 kts 314°
2026-05-06 17:50 36.82303 28.46887 12168 ft 281 kts 313°
2026-05-06 17:51 36.83611 28.45086 11514 ft 279 kts 314°
2026-05-06 17:51 36.84913 28.43293 10862 ft 278 kts 314°
2026-05-06 17:51 36.86208 28.41509 10186 ft 277 kts 314°
2026-05-06 17:51 36.87498 28.39729 9518 ft 276 kts 314°
2026-05-06 17:52 36.88788 28.37953 8833 ft 275 kts 313°
2026-05-06 17:52 36.90075 28.36184 8148 ft 275 kts 314°
2026-05-06 17:52 36.91355 28.34423 7501 ft 273 kts 313°
2026-05-06 17:52 36.92623 28.32673 6869 ft 270 kts 313°
2026-05-06 17:53 36.93876 28.30939 6205 ft 267 kts 313°
2026-05-06 17:53 36.95116 28.29222 5649 ft 264 kts 313°
2026-05-06 17:53 36.95937 28.28087 5548 ft 267 kts 313°
2026-05-06 17:53 36.97206 28.26391 5500 ft 267 kts 318°
2026-05-06 17:54 36.98704 28.25026 5506 ft 267 kts 329°
2026-05-06 17:54 37.00287 28.23800 5507 ft 267 kts 328°
2026-05-06 17:54 37.01864 28.22570 5507 ft 267 kts 328°
2026-05-06 17:54 37.03442 28.21333 5508 ft 267 kts 328°
2026-05-06 17:55 37.05526 28.19698 5508 ft 268 kts 328°
2026-05-06 17:55 37.06579 28.18872 5503 ft 258 kts 328°
2026-05-06 17:55 37.08044 28.17720 5502 ft 241 kts 328°
2026-05-06 17:55 37.09414 28.16643 5504 ft 226 kts 328°
2026-05-06 17:56 37.10725 28.15611 5506 ft 217 kts 328°
2026-05-06 17:56 37.11965 28.14632 5503 ft 207 kts 328°
2026-05-06 17:56 37.13138 28.13627 5503 ft 203 kts 318°
2026-05-06 17:56 37.14000 28.12270 5503 ft 201 kts 297°
2026-05-06 17:57 37.14482 28.10617 5509 ft 202 kts 287°
2026-05-06 17:57 37.14890 28.08934 5507 ft 203 kts 288°
2026-05-06 17:57 37.15300 28.07249 5508 ft 202 kts 287°
2026-05-06 17:57 37.15708 28.05566 5507 ft 202 kts 288°
2026-05-06 17:58 37.16117 28.03881 5508 ft 202 kts 287°
2026-05-06 17:58 37.16527 28.02192 5508 ft 202 kts 288°
2026-05-06 17:58 37.16934 28.00510 5508 ft 202 kts 288°
2026-05-06 17:58 37.17343 27.98822 5508 ft 202 kts 288°
2026-05-06 17:59 37.17750 27.97142 5506 ft 201 kts 288°
2026-05-06 17:59 37.18158 27.95460 5500 ft 201 kts 288°
2026-05-06 17:59 37.18559 27.93797 5339 ft 201 kts 288°
2026-05-06 17:59 37.18968 27.92107 5026 ft 204 kts 287°
2026-05-06 18:00 37.19381 27.90393 4675 ft 204 kts 287°
2026-05-06 18:00 37.19788 27.88705 4330 ft 200 kts 288°
2026-05-06 18:00 37.20190 27.87039 3985 ft 199 kts 287°
2026-05-06 18:00 37.20587 27.85391 3661 ft 195 kts 288°
2026-05-06 18:01 37.20970 27.83799 3341 ft 186 kts 287°
2026-05-06 18:01 37.21332 27.82297 3039 ft 171 kts 287°
2026-05-06 18:01 37.21663 27.80920 2727 ft 158 kts 287°
2026-05-06 18:01 37.21970 27.79641 2459 ft 148 kts 286°
2026-05-06 18:02 37.22259 27.78437 2206 ft 141 kts 286°
2026-05-06 18:02 37.22539 27.77273 1972 ft 138 kts 285°
2026-05-06 18:02 37.22813 27.76130 1737 ft 136 kts 285°
2026-05-06 18:02 37.23086 27.74994 1503 ft 136 kts 284°
2026-05-06 18:03 37.23357 27.73863 1271 ft 135 kts 284°
2026-05-06 18:03 37.23628 27.72732 1036 ft 135 kts 284°
2026-05-06 18:03 37.23894 27.71622 805 ft 134 kts 284°
2026-05-06 18:03 37.24163 27.70498 574 ft 134 kts 284°
2026-05-06 18:04 37.24433 27.69368 336 ft 136 kts 284°
2026-05-06 18:04 37.24703 27.68247 137 ft 134 kts 285°
2026-05-06 18:04 37.24972 27.67134 51 ft 133 kts 285°
2026-05-06 18:04 37.25209 27.66114 30 ft 106 kts 286°
2026-05-06 18:05 37.25385 27.65375 30 ft 69 kts 286°
2026-05-06 18:05 37.25466 27.65016 33 ft 17 kts 285°
2026-05-06 18:05 37.25424 27.64904 32 ft 9 kts 199°
2026-05-06 18:05 37.25422 27.64903 31 ft 0 kts 199°
2026-05-06 18:06 37.25417 27.64901 31 ft 3 kts 199°
2026-05-06 18:06 37.25377 27.64884 33 ft 9 kts 198°
2026-05-06 18:06 37.25318 27.64933 32 ft 19 kts 110°
2026-05-06 18:06 37.25246 27.65244 30 ft 44 kts 107°
2026-05-06 18:07 37.25159 27.65595 31 ft 41 kts 107°
2026-05-06 18:07 37.25080 27.65909 31 ft 21 kts 110°
2026-05-06 18:07 37.24960 27.65933 31 ft 15 kts 186°
2026-05-06 18:07 37.24906 27.66033 31 ft 15 kts 106°
2026-05-06 18:08 37.24875 27.66166 31 ft 16 kts 106°
2026-05-06 18:08 37.24839 27.66313 30 ft 19 kts 107°
2026-05-06 18:08 37.24809 27.66436 30 ft 13 kts 107°
2026-05-06 18:08 37.24766 27.66542 30 ft 14 kts 112°
2026-05-06 18:09 37.24735 27.66665 30 ft 16 kts 107°
2026-05-06 18:09 37.24702 27.66803 30 ft 18 kts 107°
2026-05-06 18:09 37.24664 27.66958 30 ft 20 kts 107°
2026-05-06 18:09 37.24624 27.67134 31 ft 22 kts 105°
2026-05-06 18:10 37.24578 27.67326 31 ft 24 kts 107°
2026-05-06 18:10 37.24543 27.67472 31 ft 13 kts 107°
2026-05-06 18:10 37.24518 27.67575 31 ft 7 kts 107°
2026-05-06 18:10 37.24505 27.67628 31 ft 6 kts 107°
2026-05-06 18:11 37.24481 27.67655 31 ft 4 kts 165°
2026-05-06 18:11 37.24454 27.67651 31 ft 4 kts 193°
2026-05-06 18:11 37.24435 27.67644 31 ft 0 kts 197°
2026-05-06 18:12 37.24425 27.67640 31 ft 1 kts 198°
2026-05-06 18:12 37.24420 27.67638 31 ft 0 kts 198°